Location: Caltech
(34.1382°N, 118.1253°W)
Time: 16:57:37
(UTC-07:00)

Meteor 2-4 Rocket - Visible Passes

Search period start: 24 March 2017 00:00
Search period end: 03 April 2017 00:00
Orbit: 799 x 909 km, 81.2° (Epoch: 23 March)

Date Brightness Start Highest point End Pass type
(mag) Time Alt. Az. Time Alt. Az. Time Alt. Az.
24 Mar 3.8 05:23:31 10° S 05:29:11 81° E 05:34:42 10° N visible
25 Mar 3.8 05:12:32 10° S 05:18:10 75° E 05:23:40 10° NNE visible
26 Mar 3.9 05:01:34 10° S 05:07:09 70° E 05:12:37 10° NNE visible
27 Mar 4.0 04:50:54 12° S 04:56:09 65° E 05:01:34 10° NNE visible
28 Mar 4.1 04:41:10 19° S 04:45:08 60° E 04:50:30 10° NNE visible
29 Mar 4.2 04:31:13 27° SSE 04:34:07 56° E 04:39:27 10° NNE visible
29 Mar 5.2 06:14:20 10° WSW 06:17:24 15° WNW 06:20:28 10° NW visible
30 Mar 4.3 04:21:06 34° SSE 04:23:06 52° E 04:28:22 10° NNE visible
30 Mar 5.2 06:03:13 11° WSW 06:06:21 16° WNW 06:09:39 10° NW visible
31 Mar 4.4 04:10:51 40° SE 04:12:06 48° E 04:17:18 10° NNE visible
31 Mar 5.1 05:52:59 14° W 05:55:18 17° WNW 05:58:48 10° NNW visible
01 Apr 4.5 04:00:30 43° ESE 04:01:05 44° E 04:06:13 10° NNE visible
01 Apr 5.0 05:42:38 16° W 05:44:14 18° WNW 05:47:57 10° NNW visible
02 Apr 4.7 03:50:05 41° E 03:50:05 41° E 03:55:08 10° NNE visible
02 Apr 4.9 05:32:12 19° W 05:33:11 20° WNW 05:37:04 10° NNW visible
